International Skating Union - Official Site

ISU World Cup Inzell
December 4-6, 2015

Draw | Lap Times | Index | World Cup

Referee: Dan  IMMERFALL  (USA)
Starter: John Magne  ELIASSEN  (NOR)
StartTime: EndTime: Air Temp: Ice Temp: Humidity:
15:16 16:18 13.8℃ -6.3℃ 31%
Result 5000m Men Division A
Rankings as of Dec 6 2015 6:51PM
Rank: No.: Name: Nation: Time: Behind: Points:
1 83 Jorrit  Bergsma NED NED 6:17.35200m - 19.07 - (19.0)
600m - 48.88 - (29.8)
1000m - 1:18.77 - (29.8)
1400m - 1:49.17 - (30.4)
1800m - 2:19.10 - (29.9)
2200m - 2:49.11 - (30.0)
2600m - 3:19.02 - (29.9)
3000m - 3:49.03 - (30.0)
3400m - 4:18.90 - (29.8)
3800m - 4:48.66 - (29.7)
4200m - 5:18.21 - (29.5)
4600m - 5:47.76 - (29.5)
5000m - 6:17.35 - (29.5)
100
2 106 Sverre  Lunde Pedersen NOR NOR 6:19.52200m - 18.70 - (18.7)
600m - 48.53 - (29.8)
1000m - 1:18.74 - (30.2)
1400m - 1:48.75 - (30.0)
1800m - 2:18.79 - (30.0)
2200m - 2:49.05 - (30.2)
2600m - 3:19.26 - (30.2)
3000m - 3:49.12 - (29.8)
3400m - 4:19.03 - (29.9)
3800m - 4:48.94 - (29.9)
4200m - 5:18.71 - (29.7)
4600m - 5:48.73 - (30.0)
5000m - 6:19.52 - (30.7)
2.17 80
3 96 Arjan  Stroetinga NED NED 6:21.66200m - 19.24 - (19.2)
600m - 49.04 - (29.8)
1000m - 1:19.42 - (30.3)
1400m - 1:49.73 - (30.3)
1800m - 2:20.07 - (30.3)
2200m - 2:50.49 - (30.4)
2600m - 3:21.12 - (30.6)
3000m - 3:51.53 - (30.4)
3400m - 4:21.52 - (29.9)
3800m - 4:51.42 - (29.9)
4200m - 5:21.38 - (29.9)
4600m - 5:51.46 - (30.0)
5000m - 6:21.66 - (30.2)
4.31 70
4 86 Douwe  de Vries NED NED 6:21.85200m - 18.98 - (18.9)
600m - 48.97 - (29.9)
1000m - 1:19.33 - (30.3)
1400m - 1:49.49 - (30.1)
1800m - 2:19.61 - (30.1)
2200m - 2:49.72 - (30.1)
2600m - 3:19.82 - (30.1)
3000m - 3:49.76 - (29.9)
3400m - 4:19.83 - (30.0)
3800m - 4:50.23 - (30.4)
4200m - 5:20.70 - (30.4)
4600m - 5:51.11 - (30.4)
5000m - 6:21.85 - (30.7)
4.50 60
5 112 Peter  Michael NZL NZL 6:23.51200m - 18.64 - (18.6)
600m - 47.33 - (28.6)
1000m - 1:17.25 - (29.9)
1400m - 1:47.19 - (29.9)
1800m - 2:17.23 - (30.0)
2200m - 2:47.21 - (29.9)
2600m - 3:17.51 - (30.3)
3000m - 3:47.83 - (30.3)
3400m - 4:18.35 - (30.5)
3800m - 4:49.38 - (31.0)
4200m - 5:20.91 - (31.5)
4600m - 5:53.00 - (32.0)
5000m - 6:23.51 - (30.5)
6.16 50
6 89 Erik Jan  Kooiman NED NED 6:23.56200m - 20.06 - (20.0)
600m - 50.07 - (30.0)
1000m - 1:20.35 - (30.2)
1400m - 1:50.60 - (30.2)
1800m - 2:20.75 - (30.1)
2200m - 2:50.73 - (29.9)
2600m - 3:20.75 - (30.0)
3000m - 3:50.78 - (30.0)
3400m - 4:21.13 - (30.3)
3800m - 4:51.66 - (30.5)
4200m - 5:22.33 - (30.6)
4600m - 5:52.85 - (30.5)
5000m - 6:23.56 - (30.7)
6.21 45
7 40 Patrick  Beckert GER GER 6:23.76200m - 19.49 - (19.4)
600m - 48.97 - (29.4)
1000m - 1:19.20 - (30.2)
1400m - 1:49.23 - (30.0)
1800m - 2:19.60 - (30.3)
2200m - 2:50.05 - (30.4)
2600m - 3:20.66 - (30.6)
3000m - 3:51.35 - (30.6)
3400m - 4:22.15 - (30.8)
3800m - 4:52.59 - (30.4)
4200m - 5:22.84 - (30.2)
4600m - 5:53.29 - (30.4)
5000m - 6:23.76 - (30.4)
6.41 40
8 42 Moritz  Geisreiter GER GER 6:24.11200m - 18.93 - (18.9)
600m - 48.33 - (29.4)
1000m - 1:18.60 - (30.2)
1400m - 1:48.79 - (30.1)
1800m - 2:19.40 - (30.6)
2200m - 2:49.80 - (30.4)
2600m - 3:20.36 - (30.5)
3000m - 3:50.91 - (30.5)
3400m - 4:21.54 - (30.6)
3800m - 4:52.13 - (30.5)
4200m - 5:22.88 - (30.7)
4600m - 5:53.68 - (30.8)
5000m - 6:24.11 - (30.4)
6.76 35
9 39 Alexis  Contin FRA FRA 6:24.31200m - 19.21 - (19.2)
600m - 48.96 - (29.7)
1000m - 1:18.99 - (30.0)
1400m - 1:49.09 - (30.1)
1800m - 2:19.26 - (30.1)
2200m - 2:49.37 - (30.1)
2600m - 3:19.51 - (30.1)
3000m - 3:49.71 - (30.2)
3400m - 4:19.93 - (30.2)
3800m - 4:50.37 - (30.4)
4200m - 5:21.33 - (30.9)
4600m - 5:52.55 - (31.2)
5000m - 6:24.31 - (31.7)
6.96 30
10 50 Andrea  Giovannini ITA ITA 6:26.06200m - 18.96 - (18.9)
600m - 48.41 - (29.4)
1000m - 1:19.63 - (31.2)
1400m - 1:50.24 - (30.6)
1800m - 2:20.57 - (30.3)
2200m - 2:50.99 - (30.4)
2600m - 3:21.43 - (30.4)
3000m - 3:51.93 - (30.5)
3400m - 4:22.76 - (30.8)
3800m - 4:53.58 - (30.8)
4200m - 5:24.56 - (30.9)
4600m - 5:55.50 - (30.9)
5000m - 6:26.06 - (30.5)
8.71 25
11 11 Jordan  Belchos CAN CAN 6:26.41200m - 19.06 - (19.0)
600m - 48.42 - (29.3)
1000m - 1:18.43 - (30.0)
1400m - 1:48.73 - (30.3)
1800m - 2:18.99 - (30.2)
2200m - 2:49.46 - (30.4)
2600m - 3:20.11 - (30.6)
3000m - 3:50.88 - (30.7)
3400m - 4:21.78 - (30.9)
3800m - 4:52.95 - (31.1)
4200m - 5:24.11 - (31.1)
4600m - 5:55.44 - (31.3)
5000m - 6:26.41 - (30.9)
9.06 21
12 85 Bob  de Jong NED NED 6:27.08200m - 19.87 - (19.8)
600m - 50.07 - (30.2)
1000m - 1:20.78 - (30.7)
1400m - 1:51.20 - (30.4)
1800m - 2:21.88 - (30.6)
2200m - 2:52.15 - (30.2)
2600m - 3:22.20 - (30.0)
3000m - 3:52.33 - (30.1)
3400m - 4:22.66 - (30.3)
3800m - 4:53.25 - (30.5)
4200m - 5:24.61 - (31.3)
4600m - 5:56.14 - (31.5)
5000m - 6:27.08 - (30.9)
9.73 18
13 132 Yevgeny  Seryaev RUS RUS 6:28.75200m - 19.70 - (19.7)
600m - 50.22 - (30.5)
1000m - 1:20.13 - (29.9)
1400m - 1:50.70 - (30.5)
1800m - 2:21.12 - (30.4)
2200m - 2:51.92 - (30.8)
2600m - 3:22.26 - (30.3)
3000m - 3:52.85 - (30.5)
3400m - 4:23.53 - (30.6)
3800m - 4:54.79 - (31.2)
4200m - 5:25.97 - (31.1)
4600m - 5:57.28 - (31.3)
5000m - 6:28.75 - (31.4)
11.40 16
14 131 Aleksandr  Rumyantsev RUS RUS 6:32.91200m - 19.20 - (19.2)
600m - 49.14 - (29.9)
1000m - 1:19.50 - (30.3)
1400m - 1:50.37 - (30.8)
1800m - 2:21.26 - (30.8)
2200m - 2:52.17 - (30.9)
2600m - 3:23.16 - (30.9)
3000m - 3:54.24 - (31.0)
3400m - 4:25.34 - (31.1)
3800m - 4:56.65 - (31.3)
4200m - 5:28.01 - (31.3)
4600m - 5:59.89 - (31.8)
5000m - 6:32.91 - (33.0)
15.56 14
15 31 Viktor-Hald  Thorup DEN DEN 6:34.05200m - 20.42 - (20.4)
600m - 51.42 - (31.0)
1000m - 1:22.41 - (30.9)
1400m - 1:53.58 - (31.1)
1800m - 2:24.64 - (31.0)
2200m - 2:55.25 - (30.6)
2600m - 3:25.69 - (30.4)
3000m - 3:56.33 - (30.6)
3400m - 4:27.18 - (30.8)
3800m - 4:58.23 - (31.0)
4200m - 5:29.54 - (31.3)
4600m - 6:01.91 - (32.3)
5000m - 6:34.05 - (32.1)
16.70 12
16 80 Seung-Hoon  Lee KOR KOR 6:43.26200m - 19.50 - (19.5)
600m - 49.89 - (30.3)
1000m - 1:21.04 - (31.1)
1400m - 1:51.85 - (30.8)
1800m - 2:22.94 - (31.0)
2200m - 2:54.02 - (31.0)
2600m - 3:25.72 - (31.7)
3000m - 3:57.63 - (31.9)
3400m - 4:29.93 - (32.3)
3800m - 5:02.54 - (32.6)
4200m - 5:35.73 - (33.1)
4600m - 6:09.51 - (33.7)
5000m - 6:43.26 - (33.7)
25.91 10